GW3504 Weather Reports


Display with metric or nautical units.
time (UTC)temp
F
wind
direction
speed
MPH
gust
MPH
rain 1hr
in
rain 24hr
in
rain mn
in
humidity
%
barometer
mb
20260504185024 81 284 2.0 9.0 0.00 0.00 0.00 42 1003.2
20260504184548 81 188 2.0 8.0 0.00 0.00 0.00 42 1003.3
20260504184026 81 0 1.0 8.0 0.00 0.00 0.00 42 1003.3
20260504183524 80 348 3.0 10.0 0.00 0.00 0.00 43 1003.3
20260504183036 80 0 2.0 14.0 0.00 0.00 0.00 40 1003.3
20260504182523 79 99 5.0 14.0 0.00 0.00 0.00 41 1003.4
20260504182027 80 140 3.0 13.0 0.00 0.00 0.00 41 1003.4
20260504181536 80 0 1.0 13.0 0.00 0.00 0.00 43 1003.4
20260504181026 79 232 2.0 13.0 0.00 0.00 0.00 42 1003.4
20260504180526 79 146 2.0 10.0 0.00 0.00 0.00 45 1003.4
20260504180035 78 243 2.0 10.0 0.00 0.00 0.00 44 1003.5
20260504175524 79 292 2.0 9.0 0.00 0.00 0.00 43 1003.5
20260504175029 79 290 1.0 7.0 0.00 0.00 0.00 44 1003.6
20260504174540 79 328 2.0 7.0 0.00 0.00 0.00 44 1003.6
20260504174024 79 0 1.0 9.0 0.00 0.00 0.00 43 1003.6
20260504173526 78 0 2.0 9.0 0.00 0.00 0.00 45 1003.6
20260504173037 78 207 2.0 9.0 0.00 0.00 0.00 44 1003.6
20260504172525 78 346 2.0 9.0 0.00 0.00 0.00 45 1003.6
20260504172025 78 140 2.0 8.0 0.00 0.00 0.00 44 1003.7
20260504171537 77 120 2.0 10.0 0.00 0.00 0.00 45 1003.7
20260504171025 77 0 3.0 10.0 0.00 0.00 0.00 47 1003.9
20260504170524 77 123 1.0 12.0 0.00 0.00 0.00 46 1003.8
20260504151025 71 284 1.0 7.0 0.00 0.00 0.00 56 1004.0
20260504150526 71 182 0.0 12.0 0.00 0.00 0.00 55 1003.9
20260504141024 66 0 2.0 10.0 0.00 0.00 0.00 61 1004.1
20260504140525 66 0 2.0 11.0 0.00 0.00 0.00 62 1004.0
20260504130523 61 175 1.0 8.0 0.00 0.00 0.00 67 1003.9
20260504110524 60 0 0.0 0.0 0.00 0.00 0.00 67 1004.0
20260504100523 63 0 0.0 2.0 0.00 0.00 0.00 59 1004.6
20260504081539 66 0 1.0 8.0 0.00 0.00 0.00 53 1004.8
20260504081026 66 0 1.0 8.0 0.00 0.00 0.00 53 1005.0
20260504080524 66 0 1.0 11.0 0.00 0.00 0.00 53 1005.1
20260504050525 65 0 0.0 0.0 0.00 0.00 0.00 57 1007.4
20260504045524 65 0 0.0 0.0 0.00 0.00 0.00 56 1007.4
20260504045024 66 0 0.0 0.0 0.00 0.00 0.00 54 1007.5
20260504044537 66 0 0.0 0.0 0.00 0.00 0.00 55 1007.6
20260504044024 66 0 0.0 0.0 0.00 0.00 0.00 54 1007.7
20260504043525 67 0 0.0 0.0 0.00 0.00 0.00 53 1007.8
20260504043042 67 0 0.0 0.0 0.00 0.00 0.00 52 1007.9
20260504042524 68 0 0.0 0.0 0.00 0.00 0.00 50 1007.9
20260504042024 68 0 0.0 0.0 0.00 0.00 0.00 50 1007.8
20260504041537 68 0 0.0 0.0 0.00 0.00 0.00 50 1007.9
20260504041024 68 0 0.0 0.0 0.00 0.00 0.00 50 1007.8
20260504040525 67 0 0.0 0.0 0.00 0.00 0.00 51 1007.8
20260504040042 67 0 0.0 0.0 0.00 0.00 0.00 51 1007.8
20260504035525 67 0 0.0 0.0 0.00 0.00 0.00 54 1007.8
20260504035024 67 0 0.0 0.0 0.00 0.00 0.00 52 1007.8
20260504034537 68 0 0.0 0.0 0.00 0.00 0.00 52 1007.8
20260504034030 68 0 0.0 0.0 0.00 0.00 0.00 50 1007.7
20260504033524 68 0 0.0 0.0 0.00 0.00 0.00 51 1007.8
20260504033036 69 0 0.0 0.0 0.00 0.00 0.00 50 1007.8
20260504032523 69 0 0.0 0.0 0.00 0.00 0.00 49 1007.9
20260504032024 69 0 0.0 0.0 0.00 0.00 0.00 50 1007.9
20260504031554 69 0 0.0 1.0 0.00 0.00 0.00 51 1007.8
20260504031023 69 0 0.0 9.0 0.00 0.00 0.00 50 1007.7
20260504030523 69 0 2.0 9.0 0.00 0.00 0.00 51 1007.9
20260504030043 69 0 0.0 2.0 0.00 0.00 0.00 51 1008.0
20260504025522 69 0 0.0 2.0 0.00 0.00 0.00 51 1007.9
20260504025023 68 0 0.0 0.0 0.00 0.00 0.00 51 1007.8
20260504024538 68 0 0.0 0.0 0.00 0.00 0.00 52 1007.8
20260504024023 69 0 0.0 0.0 0.00 0.00 0.00 52 1007.7
20260504023522 69 0 0.0 0.0 0.00 0.00 0.00 51 1007.7
20260504023038 69 0 0.0 0.0 0.00 0.00 0.00 51 1007.8
20260504022524 69 0 0.0 0.0 0.00 0.00 0.00 50 1007.8
20260504022022 70 0 0.0 0.0 0.00 0.00 0.00 52 1007.8
20260504021539 70 0 0.0 0.0 0.00 0.00 0.00 50 1007.8
20260504021020 70 0 0.0 0.0 0.00 0.00 0.00 50 1007.7
20260504020523 71 0 0.0 0.0 0.00 0.00 0.00 49 1007.8
20260504020040 71 0 0.0 0.0 0.00 0.00 0.00 50 1007.8
20260504015524 71 0 0.0 2.0 0.00 0.00 0.00 50 1007.8
20260504015025 71 0 0.0 2.0 0.00 0.00 0.00 50 1007.8
20260504014543 71 0 0.0 1.0 0.00 0.00 0.00 49 1007.8
20260504014023 71 0 0.0 0.0 0.00 0.00 0.00 49 1007.7
20260504013523 72 0 0.0 0.0 0.00 0.00 0.00 48 1007.8
20260504013041 73 0 0.0 0.0 0.00 0.00 0.00 48 1007.7
20260504012521 73 0 0.0 0.0 0.00 0.00 0.00 46 1007.7
20260504012024 73 0 0.0 0.0 0.00 0.00 0.00 45 1007.7
20260504011540 74 0 0.0 1.0 0.00 0.00 0.00 44 1007.6
20260504011021 74 0 0.0 2.0 0.00 0.00 0.00 43 1007.7
20260504010522 75 0 0.0 2.0 0.00 0.00 0.00 43 1007.6
20260504010048 75 0 0.0 2.0 0.00 0.00 0.00 42 1007.7
20260504005524 75 0 0.0 0.0 0.00 0.00 0.00 42 1007.7
20260504005021 75 0 0.0 0.0 0.00 0.00 0.00 42 1007.7
20260504004539 76 0 0.0 0.0 0.00 0.00 0.00 42 1007.8
20260504004024 76 0 0.0 0.0 0.00 0.00 0.00 41 1007.8
20260504003523 77 0 0.0 0.0 0.00 0.00 0.00 40 1007.8
20260504003040 77 0 0.0 1.0 0.00 0.00 0.00 40 1007.8
20260504002523 77 0 0.0 2.0 0.00 0.00 0.00 39 1007.9
20260504002022 77 0 0.0 2.0 0.00 0.00 0.00 39 1007.8
20260504001548 77 0 0.0 4.0 0.00 0.00 0.00 38 1007.9
20260504001024 78 0 0.0 5.0 0.00 0.00 0.00 38 1007.8
20260504000522 78 40 0.0 5.0 0.00 0.00 0.00 37 1007.8
20260504000038 78 0 0.0 5.0 0.00 0.00 0.00 37 1008.0
20260503235524 78 352 1.0 6.0 0.00 0.00 0.00 37 1008.2
20260503235021 79 25 1.0 6.0 0.00 0.00 0.00 37 1008.1
20260503234600 79 19 1.0 4.0 0.00 0.00 0.00 37 1008.1
20260503234023 79 28 0.0 4.0 0.00 0.00 0.00 37 1008.3
20260503233524 79 28 1.0 3.0 0.00 0.00 0.00 36 1008.2
20260503233044 79 0 1.0 4.0 0.00 0.00 0.00 35 1008.3
20260503232523 79 0 1.0 4.0 0.00 0.00 0.00 35 1008.3
20260503232023 80 41 1.0 5.0 0.00 0.00 0.00 34 1008.4
20260503231537 80 0 0.0 5.0 0.00 0.00 0.00 35 1008.6
20260503231028 80 5 1.0 5.0 0.00 0.00 0.00 34 1008.6
20260503230521 80 19 1.0 4.0 0.00 0.00 0.00 34 1008.5
20260503230038 80 19 1.0 7.0 0.00 0.00 0.00 35 1008.6
20260503225523 80 20 2.0 7.0 0.00 0.00 0.00 33 1008.7
20260503225023 81 11 2.0 5.0 0.00 0.00 0.00 34 1008.6
20260503224536 81 296 0.0 5.0 0.00 0.00 0.00 32 1008.7
20260503224021 81 0 1.0 5.0 0.00 0.00 0.00 34 1008.6
20260503223520 81 352 1.0 10.0 0.00 0.00 0.00 32 1008.8
20260503223039 81 315 5.0 10.0 0.00 0.00 0.00 32 1008.7
20260503222523 82 0 0.0 9.0 0.00 0.00 0.00 31 1008.7
20260503222023 82 321 2.0 9.0 0.00 0.00 0.00 31 1008.7
20260503221539 82 288 1.0 9.0 0.00 0.00 0.00 33 1008.6
20260503221023 82 248 3.0 9.0 0.00 0.00 0.00 32 1008.8
20260503220522 82 310 1.0 14.0 0.00 0.00 0.00 33 1008.8
20260503220036 82 351 2.0 14.0 0.00 0.00 0.00 34 1009.0
20260503215523 82 308 4.0 11.0 0.00 0.00 0.00 32 1009.0
20260503215024 82 340 2.0 11.0 0.00 0.00 0.00 34 1009.0
20260503214540 82 351 4.0 11.0 0.00 0.00 0.00 33 1009.2
20260503214023 82 283 2.0 13.0 0.00 0.00 0.00 33 1009.2
20260503213523 82 281 6.0 13.0 0.00 0.00 0.00 33 1009.2
20260503213038 82 273 4.0 13.0 0.00 0.00 0.00 32 1009.4
20260503212525 83 274 3.0 15.0 0.00 0.00 0.00 31 1009.4
20260503212023 83 301 3.0 16.0 0.00 0.00 0.00 30 1009.4
20260503211539 82 301 6.0 16.0 0.00 0.00 0.00 31 1009.4
20260503211023 83 316 2.0 13.0 0.00 0.00 0.00 31 1009.5
20260503210522 83 306 2.0 13.0 0.00 0.00 0.00 31 1009.6
20260503210036 82 213 4.0 16.0 0.00 0.00 0.00 30 1009.8
20260503205524 82 270 5.0 16.0 0.00 0.00 0.00 29 1009.8
20260503205023 82 302 6.0 14.0 0.00 0.00 0.00 28 1010.0
20260503204545 82 178 4.0 13.0 0.00 0.00 0.00 32 1010.0
20260503204021 83 335 6.0 13.0 0.00 0.00 0.00 31 1010.0
20260503203523 83 290 3.0 12.0 0.00 0.00 0.00 31 1010.1
20260503203052 83 301 5.0 11.0 0.00 0.00 0.00 31 1010.1
20260503202522 83 290 2.0 9.0 0.00 0.00 0.00 32 1010.2
20260503202028 82 46 2.0 11.0 0.00 0.00 0.00 33 1010.3
20260503201537 83 184 4.0 11.0 0.00 0.00 0.00 31 1010.4
20260503201023 83 0 0.0 11.0 0.00 0.00 0.00 33 1010.4
20260503200523 82 0 2.0 12.0 0.00 0.00 0.00 33 1010.4
20260503200039 82 300 3.0 13.0 0.00 0.00 0.00 36 1010.6
20260503195524 81 0 6.0 13.0 0.00 0.00 0.00 33 1010.6
20260503195027 82 277 2.0 9.0 0.00 0.00 0.00 36 1010.7
20260503194552 82 267 2.0 11.0 0.00 0.00 0.00 35 1010.7
20260503194023 81 140 2.0 11.0 0.00 0.00 0.00 35 1010.8
20260503193527 80 311 6.0 11.0 0.00 0.00 0.00 36 1010.8
20260503193045 81 192 2.0 11.0 0.00 0.00 0.00 35 1010.8
20260503192524 80 296 1.0 11.0 0.00 0.00 0.00 36 1010.9
20260503192023 81 274 2.0 11.0 0.00 0.00 0.00 36 1011.0
20260503191538 80 297 4.0 11.0 0.00 0.00 0.00 35 1011.0
20260503191023 79 311 4.0 9.0 0.00 0.00 0.00 37 1011.2
20260503190523 79 310 3.0 10.0 0.00 0.00 0.00 37 1011.3
20260503190039 79 254 3.0 11.0 0.00 0.00 0.00 36 1011.4
20260503185523 80 281 1.0 11.0 0.00 0.00 0.00 35 1011.5